Regional Weather Roundup
Issued by NWS Wakefield, VA

Home | Current Version | Previous Version | Graphics & Text | Print | Product List | Glossary On
Versions: 1 2 3 4 5 6 7 8 9 10 11 12 13 14 15 16 17 18 19 20 21 22 23 24 25 26 27
000
ASUS41 KAKQ 221615
RWRAKQ

REGIONAL WEATHER ROUNDUP
NATIONAL WEATHER SERVICE WAKEFIELD VA
1200 PM EDT THU JUN 22 2017

Note: "fair" indicates few or no clouds below 12,000 feet with no
significant weather and/or obstructions to visibility. * = Denotes
station may not report precipitation (e.g., rain,snow,etc.),
thunder or fog.

VAZ042-051-052>054-056-221700-
NORTHERN VIRGINIA

CITY           SKY/WX    TMP DP  RH WIND       PRES   REMARKS
WASH NATIONAL  CLOUDY    86  73  65 S9        30.01R
DULLES         CLOUDY    84  67  56 W5        30.03R
FORT BELVOIR   CLOUDY    88  71  56 S7        30.01R
QUANTICO       CLOUDY    85  77  77 S8        30.02S HX  95
FREDERICKSBRG* CLOUDY    87  68  53 SW7       30.02S
STAFFORD*      CLOUDY    85  67  53 SW5       30.07R
WARRENTON      CLOUDY    86  65  49 S5        30.03R
CULPEPER*      PTSUNNY   85  70  59 S7        30.04S
MANASSAS*      NOT AVBL
LEESBURG*      CLOUDY    86  72  62 NW5       30.04R
WINCHESTER     CLOUDY    79  64  61 W9        30.04S
FRONT ROYAL*   CLOUDY    82  68  61 W5        30.04R
LURAY*         CLOUDY    81  68  65 SW6       30.06S
$$

VAZ048-049-060>072-079>083-221700-
CENTRAL AND SOUTH CENTRAL VIRGINIA

CITY           SKY/WX    TMP DP  RH WIND       PRES   REMARKS
RICHMOND       CLOUDY    86  71  60 SW8       30.04S
CHESTERFIELD*  NOT AVBL
PETERSBURG*    CLOUDY    83  70  66 CALM      30.06S
HANOVER        MOSUNNY   86  68  54 W7        30.05R
TAPPAHANNOCK*  MOSUNNY   87  66  48 W3        30.05R
QUINTON*       FAIR      85  71  62 CALM      30.04R
CHARLOTTSVILLE PTSUNNY   86  67  52 S8        30.06R
GORDONSVILLE*  CLOUDY    86  67  53 CALM      30.05R
ORANGE*        CLOUDY    86  70  58 CALM      30.04S
LOUISA*        CLOUDY    88  73  62 SW3       30.05R HX  96
BUMPASS*       FAIR      84  72  66 CALM      30.05R
FARMVILLE*     CLOUDY    84  62  47 SW3       30.05S
CREWE*         FAIR      84  65  51 W3        30.07R
FORT PICKETT*  FAIR     N/A N/A N/A SW7       30.07S
CHASE CITY*    FAIR      81  74  78 CALM      30.09S
CLARKSVILLE*   PTSUNNY   81  73  78 SW3       30.09R
SOUTH HILL*    CLOUDY    81  74  78 SW5       30.14S
LAWRENCEVILLE* FAIR      82  73  73 MISG      30.07S
EMPORIA*       CLOUDY    82  72  69 S5        30.08S
$$

VAZ088>098-221700-
SOUTHEAST VIRGINIA

CITY           SKY/WX    TMP DP  RH WIND       PRES   REMARKS
NORFOLK        CLOUDY    86  72  62 SW7       30.04S
VIRGINIA BEACH PTSUNNY   85  72  65 SW9       30.03S
NORFOLK NAVAL  CLOUDY    85  74  69 SW8       30.05S
WEST POINT*    CLOUDY    85  70  61 CALM      30.05S
SALUDA*        FAIR      83  74  75 CALM      30.03S
NEWPORT NEWS   PTSUNNY   83  73  72 W8        30.04S
LANGLEY AFB    PTSUNNY   83  74  74 W9        30.04S
FORT EUSTIS    CLOUDY    85  74  70 W5        30.03R
WILLIAMSBURG*  CLOUDY    86  73  66 CALM      30.05S
HR EXEC AP*    FAIR      84  73  70 SW8       30.03S
FRANKLIN*      CLOUDY    82  73  74 SW7       30.07R
US460-WAKEFLD  CLOUDY    83  74  74 SW7       30.05S
$$

VAZ020-022-025-037-045-221700-
WEST CENTRAL AND SOUTHWEST VIRGINIA

CITY           SKY/WX    TMP DP  RH WIND       PRES   REMARKS
STAUNTON*      CLOUDY    81  66  60 SW5       30.11R
WAYNESBORO*    CLOUDY    81  69  67 SW7       30.11S
HOT SPRINGS VA MOSUNNY   72  55  56 CALM      30.24S
LYNCHBURG      MOSUNNY   82  65  56 SW3       30.10R
DANVILLE       CLOUDY    80  69  69 W9        30.10R
SOUTH BOSTON*  PTSUNNY   80  72  78 W3        30.09S
MARTINSVILLE   CLOUDY    79  68  69 SW3       30.15S
ROANOKE        PTSUNNY   81  65  58 SW7       30.13R
BLACKSBURG     CLOUDY    76  66  69 W5        30.20S
DUBLIN*        CLOUDY    78  61  55 S5        30.19S
MARION*        CLOUDY    75  64  67 CALM      30.23S
HILLSVILLE*    CLOUDY    72  61  68 CALM      30.21R
RICHLANDS*     NOT AVBL
WISE*          CLOUDY    73  64  73 CALM      30.22S
ABINGDON*      CLOUDY    76  68  77 SW8       30.19S
$$

MDZ021>025-VAZ099-100-221700-
SOUTHERN MARYLAND AND THE DELMARVA PENINSULA

CITY           SKY/WX    TMP DP  RH WIND       PRES   REMARKS
PATUXENT RIVER PTSUNNY   84  71  65 SW8       30.01S
BAY BRIDGE APT MOSUNNY   82  73  74 W3        30.00S
LEONARDTOWN    CLOUDY    82  70  65 S6        30.03F
DOVER          MOSUNNY   83  75  78 E5        30.00S
GEORGETOWN     CLOUDY    86  70  58 VRB6      30.01S
EASTON         MOSUNNY   86  66  51 W5        30.04S
CAMBRIDGE      MOSUNNY   86  72  62 VRB5      30.00F
SALISBURY      CLOUDY    86  72  62 SW6       30.00F
OCEAN CITY     MOSUNNY   81  73  76 S6        30.03R
WALLOPS ISLAND CLOUDY    84  75  74 VRB6      30.02S
ACCOMACK*      CLOUDY    84  72  66 W6        30.03S
$$

NCZ012>017-030>032-221700-
NORTH CENTRAL AND EASTERN NORTH CAROLINA

CITY           SKY/WX    TMP DP  RH WIND       PRES   REMARKS
ROANOKE RAPIDS FAIR      82  73  74 SW3       30.08S
RALEIGH        CLOUDY    81  74  79 SW10      30.11S
ELIZABETH CITY PTSUNNY   84  76  76 SW10      30.06S
AHOSKIE*         N/A     81  75  82 CALM      30.08R
EDENTON*       PTSUNNY   84  75  73 CALM      30.09R
CURRITUCK*     PTSUNNY   84  74  73 SW8       30.07R
KILL DEVIL HLS PTSUNNY   82  72  70 CALM      30.06S
MANTEO         PTSUNNY   83  72  68 NW7       30.08S
CAPE HATTERAS  MOSUNNY   83  74  74 SW10      30.10R
TARBORO*       NOT AVBL
GOLDSBORO      CLOUDY    84  79  84 SW12      30.08S HX  96
WASHINGTON     MOSUNNY   84  75  73 W8        30.09S
GREENVILLE     MOSUNNY   84  73  70 W8        30.11R
NEW BERN       CLOUDY    86  75  69 W7        30.10F HX  95
WILMINGTON     MOSUNNY   85  74  69 W10       30.11S
$$

VAZ048-221700-
ELSEWHERE

CITY           SKY/WX    TMP DP  RH WIND       PRES   REMARKS
HARRISBURG PA  PTSUNNY   83  68  60 CALM      29.99F
BALTIMORE      CLOUDY    83  68  60 NW3       30.00S
ANNAPOLIS      PTSUNNY   81  75  82 SE8       30.00S
ANDREWS AFB    PTSUNNY   87  66  49 W7        30.00S
PHILADELPHIA   PTSUNNY   84  61  45 S5        30.00F
HENDERSON NC   CLOUDY    80  70  70 W6        30.10R
GREENSBORO     CLOUDY    79  68  69 SW9       30.13S
ROCKY MOUNT    PTSUNNY   84  74  71 W6        30.09S
$$

VAZ100-221700-
MARINE

STATION/POSITION TIME  TEMP    WIND        PRES    WAVE   SWELL
                       AIR SEA DIR/SP/G            HT/PER HT/PER
                 (UTC) (F)     (DEG/KT/KT) (MB)    (FT/S) (FT/S)
BRANDYWINE LGT   1542   74     230/  3/  4 1016.7R
CAPE MAY NJ      1542   80 71  110/  6/  7 1016.0R
LEWES DE         1542   78 72   80/  8/ 10 1016.1R
15NM E FENWICK I 1550   71 70  220/  6/  6 1016.9R   2/ 7   2/ 7
OCEAN-CITY-INLET 1542   72 63  200/  5/  6 1016.7S
WACHAPREAGUE VA  1542   85 81  250/  2/  6 1016.5R
THOMAS POINT MD  1600   78 78  160/  6/  7   N/A
GOOSES REEF MD   1600   80 80  160/  8/ 10 1016.9    0
COVE POINT MD    1542   78     180/ 10/ 11 1016.9F
SOLOMONS ISLAND  1542   83 76  210/  4/  5   N/A
BISHOPS HEAD MD  1542   78 81  220/  7/  9 1016.9S
PINEY POINT MD   1536           CALM  /  1   N/A
POTOMAC MD       1600   80 81  190/  2/  4 1015.6    1
CAMBRIDGE MD     1542   83 82              1016.8F
LEWISETTA VA     1542   82 78  270/  3/  5 1016.5F
RAPPAHANNOCK LGT 1536          210/  9/ 10   N/A
YORK RVR RNG VA  1542   81     270/  5/  7 1017.5R
YORKTOWN VA      1542   81 76  260/  7/ 11 1016.9R
JAMESTOWN VA     1600   82 82  230/  4/  6   N/A     0
DOMINION TERM VA 1536   79     230/  6/  7 1017.5R
KIPTOPEKE VA     1536      76  250/  7/ 11   N/A
CHES BAY BRIDGE  1536   79 74  270/  5/  6 1016.9F
CAPE HENRY VA    1536   83     240/  6/  9   N/A
WILLOUBY STN VA  1536   79     250/  8/  8 1017.2R
S CRANEY ISL VA  1536   83     210/  8/ 10 1017.0S
CAPE HENRY BUOY  1530      74                N/A     2/ 7
1ST LANDING BUOY 1600   79 76              1017.1    1/ 3
CAPE CHARLES BUO 1551      68                N/A     2/ 7
64NM E OF VA BCH 1550   72 71  230/  8/  8 1018.2S   2/ 7   2/ 7
DUCK PIER NC     1536   79 62  240/ 12/ 14 1017.7S
44100 DUCK FRF   1505      69                N/A     2/ 5
OREGON INLET NC  1536   80 78  220/  4/  5 1018.3S
HATTERAS NC      1536   80 78  270/  8/ 10 1019.0R
DIAMOND SHLS NC  1550   79 79  240/ 10/ 12 1019.3R   2/ 7   2/ 7
CAPE LOOKOUT NC  1600   80     250/  9/ 10 1019.1S
$$




USA.gov is the U.S. government's official web portal to all federal, state and local government web resources and services.